Regional Weather Roundup
Issued by NWS Charleston, SC

Current Version | Previous Version | Graphics & Text | Print | Product List | Glossary On
Versions: 1 2 3 4 5 6 7 8 9 10 11 12 13 14 15 16 17 18 19 20 21 22 23 24 25 26 27 28 29 30 31 32 33 34 35 36 37 38 39 40 41 42 43 44 45 46 47 48 49 50
000
ASUS42 KCHS 071027
RWRCHS

REGIONAL WEATHER ROUNDUP
NATIONAL WEATHER SERVICE CHARLESTON SC
500 AM EST WED DEC 07 2016

NOTE: "FAIR" INDICATES FEW OR NO CLOUDS BELOW 12,000 FEET WITH NO
SIGNIFICANT WEATHER AND/OR OBSTRUCTIONS TO VISIBILITY.

NOT ALL STATIONS ARE QUALITY CONTROLLED. USE DATA WITH CAUTION...
ESPECIALLY DEWPOINT OBSERVATIONS.

SCZ027-030-031-034>040-042>050-071100-
...SOUTHEAST SOUTH CAROLINA...

CITY           SKY/WX    TMP DP  RH WIND       PRES   REMARKS
N CHARLESTON   CLOUDY    53  50  89 N7        29.97R
WATERFRONT PRK   N/A     54  52  93 NW7       29.96R
MOUNT PLEASANT CLOUDY    54  52  94 N5        29.98R
JOHNS ISLAND   CLOUDY    54  52  94 NW7       29.98R
PINOPOLIS        N/A     52  52 100 NW8       29.89R
MONCKS CORNER  CLOUDY    50  48  93 CALM      29.98R
SUMMERVILLE    CLOUDY    52  52 100 CALM      29.99R
BEAUFORT MCAS  CLOUDY    54  52  93 N6        29.99R
BEAUFORT ARPT  CLOUDY    54  52  94 N6        29.98S FOG
HILTON HEAD IS CLOUDY    52  52 100 CALM      29.99R
WALTERBORO     CLOUDY    54 N/A N/A NW6       29.99R
ALLENDALE      CLOUDY    54  54 100 NW3       29.98R FOG

...SOUTHERN MIDLANDS AND PEE DEE...

CITY           SKY/WX    TMP DP  RH WIND       PRES   REMARKS
GEORGETOWN     CLOUDY    50  46  87 NW3       29.99R
KINGSTREE      CLOUDY    48  45  87 NW5       29.99R
ORANGEBURG     CLOUDY    50  49  96 NW5       29.98R
BARNWELL       NOT AVBL
AIKEN          CLOUDY    50  50 100 NW3       30.00S FOG
MANNING        CLOUDY    48  46  93 N3        29.99R
COLUMBIA       CLOUDY    51  48  89 W3        29.97R FOG
SUMTER         CLOUDY    47  45  90 N5        29.96R
FLORENCE       CLOUDY    48  46  93 N6        29.99R
MYRTLE BEACH   CLOUDY    50  45  81 NW10      29.99R
N MYRTLE BEACH CLOUDY    48  47  96 NW8       29.96R

$$

GAZ063-065-086>088-099>101-113>116-118-119-134>141-150-071100-
...SOUTHEAST GEORGIA...

CITY           SKY/WX    TMP DP  RH WIND       PRES   REMARKS
SAVANNAH ARPT  PTCLDY    50  48  93 CALM      30.00R FOG
HUNTER AAF     CLEAR     52  52 100 CALM      29.96R FOG
FORT STEWART   CLOUDY    52  50  94 CALM      29.96R
STATESBORO     NOT AVBL
SYLVANIA       FOG      N/A N/A N/A CALM      30.00R VSB 1/4
CLAXTON        CLOUDY   N/A N/A N/A CALM      29.99R

...CSRA...CENTRAL AND FAR SOUTHEAST GEORGIA...

CITY           SKY/WX    TMP DP  RH WIND       PRES   REMARKS
THOMSON        MOCLDY    46  46 100 CALM      30.03R VSB 1/2
AUGUSTA-BUSH   CLOUDY    50  48  93 CALM      29.99R FOG
AUGUSTA-DANIEL CLOUDY    51  48  89 CALM      29.99R FOG
SWAINSBORO     FAIR      52  50  93 CALM      30.00R
VIDALIA        CLOUDY    59  57  94 NW5       29.99R
EASTMAN        FOG       50  50  99 CALM      30.02S VSB 1/2
HAZLEHURST     FAIR      54  54 100 CALM      29.99R
ALMA           FOG       50  50 100 CALM      29.99R VSB 1/2
WAYCROSS       MOCLDY    55  55 100 CALM      29.99S
JESUP          CLOUDY    54  54 100 CALM      29.99R
BAXLEY         FAIR      55  55 100 CALM      29.99R
BRUNSWICK      MOCLDY    55  55 100 CALM      29.99S
SAINT SIMONS   MOCLDY    57  55  93 CALM      29.98R

$$

SCZ027-028-034-036>038-045-046-048>050-GAZ119-141-071100-
...LAKE AND SUPPLEMENTAL COASTAL OBSERVATIONS...

STATION/POSITION TIME  TEMP    WIND        PRES    WAVE   SWELL
                       AIR SEA DIR/SP/G            HT/PER HT/PER/DIR
                 (UTC) (F)     (DEG/KT/KT) (MB)    (FT/S) (FT/S/D)
WINYAH BAY       0945   50     310/  7     1015.0R
LAKE MURRAY      0950   49      CALM  /  2 1014.9R
ACE BASIN NERRS  0945   53     320/  2     1015.0R
FORT PULASKI     1000   56 62  360/  3/  3 1015.4
SAPELO ISLAND    1000   55        CALM     1015.0

$$

ANZ835-935-AMZ111-154-330-350-352-354-370-450-454-472-071100-
...C-MAN AND BUOY OBSERVATIONS...

STATION/POSITION TIME  TEMP    WIND        PRES    WAVE   SWELL
                       AIR SEA DIR/SP/G            HT/PER HT/PER/DIR
                 (UTC) (F)     (DEG/KT/KT) (MB)    (FT/S) (FT/S/D)
BUOY 41004       0950   59 74  330/ 12/ 16 1013.8R   3/ 8   2/140/ 8
BUOY 41008       0950   62 65  340/  8/ 10 1014.6R   2/ 6   2/150/ 6
FOLLY BEACH CMAN 1000   54     340/  7/ 11 1015.4R
CAPERS NEARSHORE 0908   54 60  340/ 10/ 14 1014.3R
FRIPP NEARSHORE  1008   55 62  330/  8/ 12 1015.1R


STATION/POSITION TIME  TEMP    WIND        PRES    WAVE   SWELL
                       AIR SEA DIR/SP/G            HT/PER HT/PER/DIR
                 (UTC) (F)     (DEG/KT/KT) (MB)    (FT/S) (FT/S/D)
5E ST. MARYS GA  1000      66                N/A     2/ 6
FRYING PAN BUOY  1010   56 74  330/ 14/ 17 1014.1
BUOY 41025       0950   55 74  320/ 23/ 27 1010.4R   7/10   3/130/10
CAPE LOOKOUT NC  1000   47     320/ 17/ 21 1012.3R
BUOY 41002       0950   72 74  320/ 19/ 23 1011.1R  10/10   7/280/10
BUOY 41010       NOT AVBL
ST AUGUSTINE FL  1000   59 67  280/  6/  7 1016.3R


$$



USA.gov is the U.S. government's official web portal to all federal, state and local government web resources and services.